Location: Chomeil
(46.0918°N, 2.9393°E)
Time: 05:12:56
(UTC+00:00)

Daily predictions for brighter satellites

Satellite Brightness Start Highest point End
(mag) Time Altitude Azimuth Time Altitude Azimuth Time Altitude Azimuth
CZ-4C R/B 4.0 03:43:05 36° SSE 03:43:05 36° SSE 03:47:41 10° SSE
Cosmos 2263 Rocket 2.7 04:12:52 55° ESE 04:13:03 56° ESE 04:18:29 10° NE
GEOS 3 Rocket 4.3 04:11:56 10° ESE 04:16:45 49° NE 04:16:45 49° NE
USA 234 3.4 04:21:38 10° NE 04:28:10 70° SE 04:30:18 45° SSW
ATLAS CENTAUR R/B 3.9 04:36:18 14° NNE 04:36:45 14° NNE 04:38:59 10° ENE
Cosmos 2227 4.2 04:41:21 65° NNW 04:41:21 65° NNW 04:46:35 10° NNE
Cosmos 2227 Rocket 4.5 04:44:29 11° N 04:44:29 11° N 04:44:45 10° N
Cosmos 1092 Rocket 3.8 04:43:01 40° NNW 04:45:23 78° W 04:51:30 10° S
Cosmos 1452 Rocket 3.5 04:43:54 43° SSW 04:45:40 84° ESE 04:51:00 10° NNE
Timation 1 Rocket 4.3 04:43:57 26° SSW 04:47:29 84° ESE 04:53:30 10° NNE
Cosmos 1850 Rocket 4.1 04:48:20 47° N 04:49:55 78° ENE 04:55:15 10° SSE
Cosmos 44 4.2 04:46:02 13° S 04:49:55 44° ESE 04:54:15 10° NE
Meteor 1-18 Rocket 4.1 04:54:06 28° N 04:57:13 88° W 05:02:49 10° S
ALOS 3.0 04:54:41 10° NNE 04:59:16 52° E 05:03:50 10° S
PSLV R/B 3.9 04:57:13 10° NNE 05:01:22 84° ESE 05:05:29 10° SSW
Cosmos 1943 3.3 05:01:28 52° WSW 05:01:32 52° WSW 05:06:56 10° S
COSMO-SKYMED 1 2.4 05:01:24 10° SSE 05:05:45 82° WSW 05:06:31 59° NNW
SL-23 DEB 3.6 05:09:59 66° ESE 05:09:59 66° ESE 05:12:55 10° ENE
ATLAS 5 CENTAUR R/B 3.9 05:10:50 14° N 05:10:50 14° N 05:12:50 10° NNE
Cosmos 2221 Rocket 3.5 05:13:27 22° N 05:16:17 85° E 05:20:41 10° S
Cosmos 1733 Rocket 4.1 05:15:37 10° SSE 05:19:43 46° E 05:23:52 10° NNE
MOS 1-B 4.3 05:14:34 10° NNE 05:20:24 87° WNW 05:26:10 10° SSW
Cosmos 1428 Rocket 4.4 05:15:42 10° NNW 05:21:57 66° W 05:28:11 10° S
PAYLOAD B 4.3 05:17:59 10° NNE 05:23:33 80° ESE 05:29:06 10° SSW
Meteor 1-25 Rocket 4.4 05:19:44 10° SSW 05:25:08 46° WNW 05:30:38 10° N
Helios 1A Rocket 3.5 05:21:32 10° NNE 05:25:31 58° ESE 05:29:29 10° S
Cosmos 1340 2.5 05:22:51 10° SSW 05:26:34 60° WNW 05:30:18 10° N
Cosmos 1346 Rocket 2.6 05:22:59 10° SSW 05:26:50 68° WNW 05:30:44 10° N
CZ-4C R/B 4.5 05:28:20 16° WSW 05:28:20 16° WSW 05:32:03 10° SW
Okean O Rocket 1.9 05:23:30 10° NNE 05:27:54 70° ESE 05:32:18 10° S
Cosmos 1331 Rocket 4.4 05:23:49 10° S 05:28:53 65° ESE 05:34:03 10° NNE
Cosmos 1869 Rocket 3.8 05:28:08 10° SSW 05:32:13 41° WNW 05:36:21 10° N
Cosmos 1500 3.8 05:31:58 10° S 05:35:44 59° E 05:39:30 10° NNE
Cosmos 1515 3.5 05:35:06 22° NNW 05:37:28 71° W 05:41:16 10° S
Meteor 1-14 Rocket 4.5 05:34:08 10° SSW 05:39:55 52° WNW 05:45:47 10° N
Geosat 4.2 05:35:30 10° S 05:40:21 49° WSW 05:43:10 24° NW
Cosmos 2026 Rocket 4.3 05:35:43 10° NNW 05:41:28 42° W 05:47:16 10° SSW
Meteor 2-4 Rocket 3.5 05:38:00 10° NNW 05:43:31 76° W 05:48:51 10° S
Cosmos 1110 Rocket 3.9 05:38:37 10° SSW 05:43:48 86° WNW 05:49:01 10° NNE
Cosmos 1674 Rocket 3.7 05:44:30 10° N 05:48:52 74° E 05:53:09 10° SSE
Meteor 1-19 Rocket 4.5 05:44:21 11° NNW 05:49:23 44° W 05:54:42 10° SSW
ADEOS Rocket 3.6 05:46:25 10° SSE 05:53:08 63° ENE 05:59:12 10° N
Cosmos 2279 Rocket 4.0 05:48:02 10° SSW 05:54:06 56° WNW 06:00:14 10° N
GEOS 3 Rocket 4.3 05:50:21 10° S 05:54:59 35° WSW 05:57:52 20° WNW
Cosmos 2263 Rocket 3.0 05:54:40 19° W 05:57:18 27° NW 06:02:02 10° N
Cosmos 1378 Rocket 3.6 06:02:00 10° N 06:06:27 83° E 06:10:54 10° S
USA 81 4.3 06:02:40 10° N 06:07:57 72° E 06:13:13 10° SSE
SJ-7 4.4 06:06:45 10° N 06:10:42 56° WNW 06:14:34 10° SSW
USA 234 3.5 06:04:47 10° NE 06:11:02 50° NNW 06:17:16 10° W
IRIDIUM 103 4.4 06:06:22 10° N 06:11:37 84° E 06:16:50 10° S
FENGYUN 3A 4.1 06:08:17 10° N 06:13:16 39° WNW 06:18:13 10° SW
SL-24 R/B 4.4 06:09:24 10° S 06:13:35 46° W 06:17:41 10° NNW
Cosmos 332 Rocket 3.9 06:09:37 10° SW 06:14:27 57° WNW 06:19:18 10° NNE
Envisat 4.4 06:09:57 10° NNE 06:14:47 42° E 06:19:35 10° S
Cosmos 1833 Rocket 4.2 06:10:03 10° NNW 06:15:07 32° NE 06:20:09 10° ESE
ATLAS CENTAUR R/B 1.6 06:12:30 11° NNW 06:16:37 64° NE 06:20:29 10° SE
NOSS 3-2 (C) 4.2 06:11:14 10° SSW 06:16:48 55° ESE 06:23:06 10° NE
ATLAS 3B R/B 4.3 06:12:44 10° S 06:18:49 37° ESE 06:24:50 10° NE
AQUARIUS 4.3 06:14:57 10° NNE 06:19:29 80° ESE 06:23:59 10° S
Cosmos 1666 2.8 06:16:00 10° S 06:19:48 79° E 06:23:36 10° NNE
CZ-4 R/B 3.9 06:20:06 10° NE 06:23:23 25° E 06:26:40 10° SSE
SMAP 3.0 06:20:43 10° NNE 06:25:24 84° WNW 06:30:04 10° SSW
Cosmos 1655 Rocket 4.5 06:22:25 10° NNW 06:28:04 38° W 06:33:42 10° SSW
Cosmos 1844 Rocket 2.7 06:23:10 10° SW 06:28:40 59° WNW 06:34:11 10° NNE
SAR-Lupe-2 4.2 06:25:19 10° SSE 06:28:51 59° ENE 06:32:24 10° N
COSMOS 2406 3.5 06:23:47 10° NNW 06:29:30 72° ENE 06:35:09 10° SSE
IRIDIUM 106 4.3 06:24:43 10° N 06:29:55 68° W 06:35:04 10° S
Cosmos 44 4.0 06:27:10 10° WSW 06:31:15 29° NW 06:35:12 10° NNE
Cosmos 1844 3.7 06:26:29 10° SW 06:32:15 70° WNW 06:38:02 10° NNE
CZ-4B R/B 3.7 06:27:45 10° N 06:32:56 39° WNW 06:38:08 10° SW
Radarsat Rocket 4.3 06:27:43 10° N 06:33:53 62° WNW 06:40:48 10° SSW
Cosmos 371 Rocket 4.0 06:30:48 10° WSW 06:35:07 31° WNW 06:39:29 10° N
Cosmos 2292 Rocket 4.3 06:29:09 10° NNW 06:35:48 63° W 06:40:43 10° S
Cosmos 1908 Rocket 3.6 06:31:52 10° SSW 06:36:19 70° W 06:40:46 10° N
ALOS 3.5 06:32:57 10° NNW 06:36:20 20° WNW 06:39:43 10° WSW
Cosmos 1302 Rocket 4.1 06:33:47 10° SW 06:39:00 61° WNW 06:44:16 10° NNE
Cosmos 1536 3.3 06:37:56 10° SW 06:41:45 38° WNW 06:45:35 10° N
Feng Yun 1-1 Rocket 4.3 06:38:55 10° N 06:44:31 73° WNW 06:50:14 10° SSW
Cosmos 1503 Rocket 4.3 06:39:11 10° NNW 06:44:31 74° ENE 06:49:52 10° SSE
Cosmos 389 Rocket 3.7 06:41:13 10° N 06:44:34 41° ENE 06:47:51 10° SSE
Cosmos 2098 Rocket 4.4 06:41:55 10° N 06:45:58 46° E 06:51:03 10° SSE
H-2A R/B 3.2 06:44:13 10° N 06:47:43 38° WNW 06:51:15 10° SW
Cosmos 968 Rocket 3.5 06:43:52 10° NNW 06:49:04 88° ENE 06:54:11 10° SSE
IRS-1C Rocket 4.2 06:46:39 10° N 06:51:47 55° WNW 06:56:53 10° SW
